[[{"header":{"parameterUnit":"m.s-1","parameterCategory":1,"la1":30.2991,"la2":30.254,"lo1":-89.0895,"lo2":-89.0444,"dy":0.0017,"dx":0.0017,"nx":28,"ny":28,"refTime":"2025-08-14T03:00:00:Z","depth":0,"parameterNumber":2,"parameterNumberName":"U-component_of_WINDS"},"data":[0,0,0,0,0,0,0,0,0,0,0,0,0,0,0,0,0,0,0,0,0,0,0,0,0,0,0,0,0,0,0,0,0,0,0,0,0,0,0,0,0,0,0,0,0,0,0,0,0,0,0,0,0,0,0,0,0,0,0.6177,0.618,0,0.6413,0.6415,0.6418,0.6504,0.6504,0.6503,0.6502,0.6744,0.6751,0.6759,0,0,0,0,0,0,0,0,0,0,0,0,0,0.5802,0.5808,0.6177,0.618,0.6183,0.6412,0.6416,0.6419,0.6504,0.6503,0.6503,0.6502,0.6742,0.6751,0.6759,0,0,0,0,0,0,0,0,0,0,0,0,0,0.5994,0.581,0.6177,0.6253,0.6263,0.6412,0.6416,0.642,0.6505,0.6503,0.6502,0.6501,0.6739,0.675,0.676,0.6851,0,0,0.6793,0.6798,0,0,0,0,0,0,0,0,0.5983,0.6007,0.6239,0.6248,0.6259,0.6428,0.6372,0.6564,0.6505,0.6413,0.6502,0.6501,0.664,0.6659,0.6706,0.6862,0.6872,0.6794,0.6801,0.6806,0.6809,0,0,0,0,0,0,0,0.5969,0.5998,0.627,0.6242,0.6255,0.6276,0.6302,0.6409,0.653,0.6421,0.6428,0.6454,0.6645,0.6695,0.6712,0.6876,0.6794,0.6804,0.681,0.6814,0.7118,0.7119,0,0,0,0,0,0,0.5943,0.5986,0.6263,0.6277,0.6115,0.6284,0.6313,0.6375,0.6529,0.6552,0.6455,0.6457,0.6677,0.6699,0.6721,0.6837,0.6805,0.6816,0.6822,0.7116,0.7118,0.712,0,0,0,0,0,0,0.5935,0.5967,0.6253,0.6134,0.6172,0.6292,0.6361,0.638,0.643,0.6555,0.6577,0.6484,0.6677,0.6706,0.6818,0.6847,0.682,0.683,0.7114,0.7117,0.7119,0.7069,0,0,0,0,0,0,0.5924,0.5964,0.5999,0.6134,0.6178,0.6346,0.6362,0.6386,0.6448,0.6454,0.6588,0.6609,0.6679,0.6801,0.6828,0.6861,0.6839,0.7112,0.7115,0.7118,0.7069,0.707,0.707,0,0,0,0,0,0.591,0.5976,0.6001,0.6033,0.6225,0.6347,0.6373,0.6451,0.645,0.6487,0.6567,0.6605,0.6838,0.6812,0.6843,0.688,0.7111,0.7114,0.7118,0.7069,0.707,0.707,0,0,0,0,0,0,0.5843,0.5995,0.6024,0.6136,0.6228,0.6362,0.6411,0.6449,0.6544,0.6545,0.6638,0.6668,0.6772,0.6837,0.6804,0.6975,0.6977,0.6987,0.6929,0.6931,0.6931,0.6914,0.6848,0,0,0,0,0,0.584,0.5927,0.6056,0.6142,0.6187,0.629,0.6347,0.6399,0.6498,0.6538,0.6626,0.6721,0.6816,0.6877,0.6971,0.7078,0.7109,0.7119,0.7119,0.7119,0.7127,0.7188,0.7194,0.7131,0.7131,0.7131,0,0,0.5838,0.5932,0.5981,0.6131,0.6209,0.6296,0.6323,0.6414,0.648,0.6552,0.6663,0.673,0.6843,0.6952,0.7005,0.701,0.7151,0.7124,0.7123,0.7131,0.7192,0.7198,0.7203,0.7134,0.7133,0.7133,0,0,0.5878,0.5957,0.6038,0.6114,0.6231,0.6299,0.6318,0.6446,0.6494,0.6606,0.6661,0.6741,0.6902,0.698,0.7041,0.7107,0.7146,0.7136,0.714,0.7198,0.7203,0.7208,0.7232,0.724,0.7143,0.7143,0.7143,0,0.586,0.5994,0.6074,0.6163,0.6227,0.6294,0.6377,0.6447,0.6588,0.6631,0.6634,0.6838,0.6918,0.7046,0.7062,0.7109,0.7134,0.7121,0.7196,0.7202,0.7207,0.7231,0.724,0.7141,0.7141,0.7141,0.7141,0,0.5966,0.6057,0.6108,0.6242,0.6312,0.6397,0.649,0.6551,0.6597,0.6664,0.6777,0.6876,0.6991,0.7025,0.7071,0.716,0.7159,0.7177,0.7182,0.721,0.7234,0.7244,0.7138,0.7139,0.7139,0.714,0,0,0.5972,0.6148,0.6165,0.6226,0.6359,0.6432,0.6519,0.6631,0.6681,0.6776,0.6852,0.6986,0.7003,0.7072,0.7127,0.7178,0.7224,0.719,0.7194,0.7193,0.7329,0.7315,0.7324,0.725,0.7252,0.7253,0.7319,0,0.6029,0.6188,0.6263,0.6389,0.6475,0.6539,0.6615,0.6704,0.6769,0.6852,0.6924,0.7017,0.7033,0.7075,0.7128,0.7207,0.7253,0.7203,0.7322,0.7325,0.7292,0.7337,0.7323,0.738,0.7329,0.7331,0.7332,0,0.6119,0.6212,0.6346,0.6468,0.6507,0.6574,0.6682,0.6759,0.6862,0.6905,0.6981,0.7033,0.7127,0.7124,0.7255,0.7219,0.7272,0.7318,0.7322,0.7337,0.7331,0.7353,0.7401,0.7409,0.7348,0.7347,0.7346,0,0.6109,0.6269,0.637,0.6421,0.6565,0.661,0.6672,0.6774,0.6836,0.693,0.6971,0.7075,0.7132,0.7211,0.729,0.728,0.7414,0.7417,0.7453,0.7451,0.748,0.7477,0.7536,0.7512,0.7511,0.7511,0.7511,0,0.6167,0.6247,0.6368,0.643,0.6521,0.6605,0.6693,0.676,0.6849,0.6926,0.6987,0.7058,0.7157,0.724,0.7302,0.7401,0.7427,0.7465,0.7481,0.746,0.7455,0.7497,0.7495,0.7514,0.7513,0.7513,0.7512,0,0.6173,0.6258,0.6372,0.6498,0.6532,0.6593,0.6702,0.6765,0.6832,0.6927,0.6955,0.706,0.7161,0.7247,0.738,0.7422,0.7524,0.7543,0.7489,0.7498,0.753,0.7525,0.7619,0.7635,0.7598,0.7598,0.7598,0,0.6205,0.6268,0.64,0.6455,0.6516,0.6604,0.6668,0.6752,0.6816,0.6936,0.6984,0.7089,0.7177,0.7335,0.7424,0.7526,0.7548,0.7573,0.7563,0.754,0.7549,0.7544,0.7551,0.7574,0.7574,0.7574,0.7574,0,0.6252,0.629,0.6379,0.6482,0.6555,0.6641,0.6728,0.6769,0.687,0.6938,0.7041,0.711,0.7244,0.7348,0.7459,0.7523,0.7565,0.7575,0.759,0.757,0.7536,0.7555,0.7491,0.7574,0.7574,0.7574,0.7574,0.7574,0.6273,0.6331,0.6433,0.653,0.6604,0.6683,0.6748,0.6823,0.691,0.7026,0.707,0.7175,0.7275,0.7429,0.7493,0.7577,0.7583,0.7603,0.7608,0.7612,0.7609,0.7522,0.7597,0.7597,0.7597,0.7597,0.7597,0,0.6323,0.6391,0.6479,0.6599,0.6674,0.6706,0.6804,0.6865,0.6956,0.7046,0.7131,0.7249,0.7349,0.7445,0.755,0.7598,0.762,0.7623,0.7621,0.7635,0.7597,0.7575,0.7603,0.7603,0.7603,0.7603,0.7603,0.7603,0.6359,0.6459,0.6509,0.6646,0.6715,0.6818,0.6871,0.6944,0.7016,0.7144,0.7228,0.7289,0.7381,0.7493,0.7586,0.7612,0.7648,0.7645,0.7676,0.7639,0.7638,0.7636,0.7616,0.7652,0.7652,0.7707,0.7708,0.7708]},{"header":{"parameterUnit":"m.s-1","parameterCategory":1,"la1":30.2991,"la2":30.254,"lo1":-89.0895,"lo2":-89.0444,"dy":0.0017,"dx":0.0017,"nx":28,"ny":28,"refTime":"2025-08-14T03:00:00:Z","depth":0,"parameterNumber":3,"parameterNumberName":"V-component_of_WINDS"},"data":[0,0,0,0,0,0,0,0,0,0,0,0,0,0,0,0,0,0,0,0,0,0,0,0,0,0,0,0,0,0,0,0,0,0,0,0,0,0,0,0,0,0,0,0,0,0,0,0,0,0,0,0,0,0,0,0,0,0,3.492,3.4919,0,3.4844,3.4844,3.4843,3.468,3.4676,3.4673,3.467,3.4595,3.4596,3.4597,0,0,0,0,0,0,0,0,0,0,0,0,0,3.4924,3.4925,3.492,3.4919,3.4918,3.4845,3.4844,3.4843,3.468,3.4676,3.4672,3.4668,3.4595,3.4596,3.4598,0,0,0,0,0,0,0,0,0,0,0,0,0,3.4893,3.4925,3.492,3.4828,3.4819,3.4845,3.4844,3.4842,3.4681,3.4676,3.4671,3.4666,3.4594,3.4596,3.4598,3.4708,0,0,3.4603,3.4603,0,0,0,0,0,0,0,0,3.4895,3.4893,3.4843,3.4835,3.4824,3.4766,3.4817,3.4797,3.4682,3.4734,3.467,3.4664,3.4656,3.4653,3.4649,3.4704,3.4701,3.4603,3.4604,3.4605,3.4605,0,0,0,0,0,0,0,3.4897,3.4895,3.489,3.4842,3.4831,3.4791,3.4781,3.4813,3.4724,3.4729,3.4717,3.471,3.465,3.4648,3.4647,3.47,3.4603,3.4604,3.4605,3.4606,3.4838,3.4843,0,0,0,0,0,0,3.4913,3.4898,3.4892,3.4888,3.4848,3.4795,3.4784,3.479,3.4723,3.4708,3.4714,3.4703,3.4648,3.4645,3.4643,3.4766,3.4605,3.4606,3.4607,3.4833,3.4839,3.4844,0,0,0,0,0,0,3.4913,3.4914,3.4895,3.489,3.4884,3.48,3.4809,3.4791,3.4789,3.4712,3.4696,3.4728,3.4644,3.4641,3.4692,3.4761,3.4607,3.4608,3.4827,3.4835,3.4842,3.5013,0,0,0,0,0,0,3.4914,3.4915,3.4956,3.4892,3.4885,3.4946,3.4813,3.4793,3.4792,3.4776,3.4721,3.4707,3.464,3.469,3.4694,3.476,3.461,3.482,3.483,3.4839,3.5001,3.5026,3.5047,0,0,0,0,0,3.4915,3.5008,3.4959,3.4959,3.4935,3.495,3.4947,3.4867,3.4798,3.4838,3.4788,3.4709,3.4753,3.4697,3.4699,3.4768,3.4815,3.4827,3.4838,3.4991,3.5021,3.5046,0,0,0,0,0,0,3.5084,3.4998,3.4942,3.5018,3.4993,3.4923,3.4971,3.4902,3.4896,3.4881,3.4783,3.4772,3.4836,3.4806,3.4746,3.4869,3.4771,3.4784,3.4886,3.4914,3.4937,3.4943,3.4611,0,0,0,0,0,3.513,3.515,3.5073,3.5147,3.5137,3.5057,3.5061,3.5001,3.4971,3.496,3.4914,3.4889,3.4896,3.4903,3.4906,3.4996,3.4981,3.5043,3.5067,3.5086,3.5098,3.5141,3.5168,3.4883,3.4883,3.4882,0,0,3.5226,3.5181,3.52,3.518,3.5153,3.5176,3.5049,3.5079,3.5094,3.4964,3.5009,3.4975,3.494,3.501,3.5038,3.4987,3.5173,3.5101,3.5117,3.5118,3.5156,3.5183,3.5207,3.489,3.4889,3.4888,0,0,3.5411,3.538,3.5436,3.5412,3.5372,3.5317,3.5331,3.5272,3.5243,3.5286,3.5189,3.5206,3.5222,3.52,3.5191,3.5366,3.5292,3.537,3.549,3.5533,3.5556,3.5575,3.5637,3.566,3.5382,3.5382,3.5383,0,3.5535,3.5564,3.5475,3.551,3.5504,3.5386,3.5442,3.5423,3.5387,3.5386,3.5329,3.5344,3.5313,3.5375,3.5417,3.5415,3.5427,3.5376,3.556,3.5578,3.5595,3.5652,3.5676,3.5392,3.5391,3.539,3.5389,0,3.5717,3.5739,3.579,3.5757,3.5756,3.5802,3.572,3.573,3.567,3.5622,3.5666,3.5623,3.5615,3.5625,3.5567,3.5679,3.5648,3.5578,3.5477,3.5634,3.5686,3.5707,3.5406,3.5402,3.5399,3.5397,0,0,3.6009,3.5924,3.5944,3.5926,3.5873,3.5888,3.5928,3.5918,3.5928,3.5907,3.5938,3.5953,3.5886,3.5876,3.5814,3.5853,3.5992,3.5776,3.5773,3.5817,3.6111,3.6165,3.6192,3.5942,3.5946,3.5949,3.6114,0,3.6181,3.6244,3.6164,3.6244,3.6262,3.615,3.6184,3.6155,3.6111,3.612,3.607,3.6082,3.5993,3.5986,3.6019,3.5968,3.605,3.5955,3.597,3.5971,3.5982,3.6219,3.6276,3.6434,3.6133,3.6137,3.6139,0,3.6391,3.6378,3.646,3.6399,3.6404,3.6437,3.642,3.643,3.6394,3.6359,3.6347,3.6273,3.6307,3.621,3.6255,3.6193,3.6194,3.617,3.6174,3.6172,3.6065,3.6224,3.6482,3.6506,3.6171,3.6168,3.6166,0,3.6594,3.6597,3.6646,3.6635,3.6565,3.6591,3.6563,3.6522,3.6521,3.6507,3.6504,3.6495,3.649,3.6485,3.6409,3.6345,3.6464,3.6361,3.6436,3.6438,3.6466,3.6465,3.6729,3.6468,3.6467,3.6467,3.6466,0,3.6795,3.6849,3.6736,3.6766,3.6823,3.673,3.679,3.675,3.6715,3.6735,3.6637,3.6659,3.6558,3.6568,3.651,3.6556,3.6555,3.6527,3.6511,3.6536,3.6539,3.6535,3.6522,3.6473,3.6472,3.6471,3.6469,0,3.7032,3.6958,3.7003,3.6933,3.6917,3.6962,3.6902,3.6927,3.6875,3.6902,3.6903,3.6822,3.6829,3.6753,3.6746,3.6706,3.6779,3.6744,3.6791,3.678,3.6859,3.6853,3.7129,3.716,3.688,3.6883,3.6885,0,3.7165,3.7203,3.7137,3.7143,3.712,3.7131,3.7128,3.7038,3.704,3.7001,3.703,3.7029,3.7023,3.7039,3.698,3.6973,3.6937,3.7034,3.6935,3.6958,3.6937,3.6936,3.6939,3.7055,3.7058,3.7061,3.7064,0,3.7408,3.7369,3.7369,3.7355,3.7355,3.734,3.7319,3.733,3.7231,3.7238,3.7243,3.7238,3.7229,3.7229,3.7211,3.7182,3.7107,3.7095,3.7112,3.7138,3.7163,3.715,3.6847,3.7089,3.7087,3.7085,3.7083,3.7082,3.7596,3.7625,3.7582,3.7584,3.7558,3.7541,3.756,3.751,3.7512,3.7497,3.7444,3.7458,3.7419,3.7387,3.7365,3.7374,3.7327,3.7352,3.7358,3.7366,3.738,3.7162,3.7371,3.737,3.7369,3.7369,3.7368,0,3.7834,3.78,3.7803,3.7776,3.7778,3.7705,3.7677,3.7684,3.7697,3.7667,3.7663,3.7668,3.7667,3.7607,3.7598,3.7617,3.7582,3.7618,3.7615,3.761,3.7423,3.7409,3.7646,3.7646,3.7646,3.7646,3.7646,3.7646,3.7958,3.8001,3.7957,3.7987,3.7952,3.7965,3.7955,3.7938,3.7913,3.7923,3.7921,3.7881,3.7839,3.7826,3.7821,3.7803,3.7805,3.7852,3.7823,3.765,3.7623,3.7597,3.7584,3.7853,3.7853,3.8008,3.801,3.8011]}]]